Showing default

STPSAT-7, 68630

Orbit data source: Space-Track

STPSAT-7, 68630 is a payload satellite owned by USAF STP (US) in LEO that was launched on Tue, 07 Apr 2026 UTC via an MINOTAUR IV launch vehicle from the Air Force Western Test Range (AFWTR). Payload-class satellites include a variety of spacecraft equipped with specific instruments for various scientific and technological missions. These include communications satellites like Starlink; space stations such as the ISS; scientific satellites like the Hubble; Earth observation satellites from companies like Planet Labs, Umbra, and HawkEye 360; GPS; miniature CubeSats for education and research; and military/defense satellites.

Loading next visibility...
Identifier
68630, 2026-074D
Orbit
LEO
Country
Flag of USUS
Related business
Manufacturer
Aegis Aerospace
Mission
Operational spacecraft
Bus & Motor
STPSAT7, AOCS
Mass
~100 kg wet, ~100 kg dry
Launch date (UTC)
2026-04-07 (2 months ago)
Launch vehicle
MINOTAUR IV
Launch site
Air Force Western Test Range (AFWTR)
Object type
Payload
Rocket body
Debris
Shape & HBR
Unknown shape, 14.5 m
Radar Cross Section
RCS unknown

Expand to show TLE details & history
Last TLE update: 1 day ago

TLE from 1 day ago
0 STPSAT-7
1 68630U 26074D   26143.83506977  .00004576  00000-0  19552-3 0  9990
2 68630  60.0215 271.5936 0023410   6.9930 353.1472 15.24381951  7066
Epoch: 2026-05-23T20:02Z
TLE epoch observation values (Epoch: 2026-05-23T20:02:30.028Z)
Latitude
-0.00004°
Longitude
89.52259°
Altitude
478.273 km
Speed
7.636 km/s
True Right ascension
18h 06m 22s
True Declination
0° 00' 00"
Sunlit
Object was in full shadow at epoch
Visualization orbit readout
Latitude
Unknown
Longitude
Unknown
Altitude
Unknown
Speed
Unknown
Apparent Right ascension
Unknown
Apparent Declination
Unknown
Sunlit
N/A
Visualization observer readout
Local Sidereal Time
09:38:21
Azimuth
Unknown
Elevation
Unknown
Doppler factor
Unknown
Orbital elements
Apogee altitude
507.924 km
Perigee altitude
475.759 km
Semi-major axis
6,869.979 km
Eccentricity
0.00234
Inclination
60.0215°
RAAN
271.5936°
Arg. of periapsis
6.993°
True anomaly
353.1151°
Mean anomaly
353.1472°
Eccentric anomaly
353.13116°
Mean motion
3.81162 °/min
Orbital period
94.45 mins
BSTAR
0.00019552
Loading maneuver chart data...
Computing Atmospheric mass density...
Loading historical data...
Loading historical data...
Loading historical data...
Loading historical data...
Loading historical data...
Loading historical data...
Loading historical data...

Documentation

Showing up to 5 results
|